Home > Time Zones > World Clock > Weather > Ghana > Accra > Past weeks

Flag for Ghana Weather past 2 weeks in Accra, Ghana

Now
77 °F

Passing clouds.


Feels Like: 78 °F
Forecast: 78 / 86 °F
Wind: 8 mph from West

Location: Accra Airport

Current Time: Oct 23, 2014 at 3:30:16 AM

Latest Report: Oct 23, 2014 at 2:00 AM


Visibility: N/A

Pressure: 29.89 "Hg

Humidity: 94%

Dew point: 75 °F

Location of AccraLocation

Historic Weather in Accra — Graph

°F

Accra temperature yesterday

Maximum temperature yesterday: 86 °F (at 11:50 AM)
Minimum temperature yesterday: 75 °F (at 5:00 AM)
Average temperature yesterday: 80 °F

Past Weeks' High & Low Weather Summary

 TemperatureHumidityPressure
High86 °F (Oct 9, 12:00 PM)100% (Oct 12, 3:51 AM)30.01 "Hg (Oct 12, 3:51 AM)
Low73 °F (Oct 11, 1:00 PM)66% (Oct 9, 12:00 PM)29.80 "Hg (Oct 10, 3:00 PM)
Average80 °F84%29.90 "Hg
* Reported Oct 8 2:00 AM — Oct 23 2:00 AM, Accra, Weather by CustomWeather, © 2014

Note: Actual official high and low records may vary slightly from our data, if they occured in-between our weather recording intervals... More about our weather records

Advertising

Accra weather history for previous 24 hours

 ConditionsComfort  
Time TempWeatherWind HumidityBarometerVisibility
2:00 AM
Oct 23
77 °FPassing clouds.8 mph94%29.89 "HgN/A
1:00 AM79 °FPassing clouds.9 mph89%29.89 "HgN/A
12:00 AM79 °FPassing clouds.10 mph89%29.92 "HgN/A
11:00 PM
Oct 22
79 °FPassing clouds.10 mph89%29.95 "HgN/A
10:00 PM79 °FPassing clouds.9 mph89%29.95 "HgN/A
9:00 PM79 °FPassing clouds.9 mph89%29.95 "HgN/A
8:00 PM79 °FPassing clouds.8 mph89%29.92 "HgN/A
7:00 PM79 °FPassing clouds.10 mph89%29.89 "HgN/A
2:50 PM84 °FSunny.13 mph70%29.86 "Hg10 mi
1:49 PM86 °FPassing clouds.12 mph66%29.86 "HgN/A
1:00 PM86 °FPassing clouds.15 mph66%29.89 "HgN/A
11:50 AM86 °FPartly sunny.13 mph66%29.92 "HgN/A
10:51 AM84 °FPartly sunny.10 mph70%29.92 "HgN/A
10:00 AM82 °FBroken clouds.10 mph74%29.95 "HgN/A
8:49 AM82 °FPartly sunny.9 mph74%29.98 "HgN/A
7:49 AM79 °FPassing clouds.9 mph84%29.95 "HgN/A
7:00 AM75 °FPartly sunny.10 mph94%29.95 "HgN/A
6:00 AM75 °FPassing clouds.8 mph94%29.92 "HgN/A
5:00 AM75 °FPassing clouds.8 mph94%29.89 "HgN/A
4:00 AM77 °FPassing clouds.9 mph89%29.89 "HgN/A
3:00 AM77 °FPartly cloudy.10 mph94%29.89 "HgN/A
Weather by CustomWeather, © 2014

See weather overviewHow to use our weather pages